Flag for Azerbaijan

Past Weather in Baku, Azerbaijan — Yesterday and Last 2 Weeks

Now
54 °F

Clear.


Feels Like: 53 °F
Forecast: 72 / 60 °F
Wind: 5 mph from Northwest

Location: Baku / Bine Airport
Current Time: Oct 23, 2020 at 4:31:27 am
Latest Report: Oct 23, 2020 at 4:00 am
Visibility: 10 mi
Pressure30.21 "Hg
Humidity: 94%
Dew Point: 52 °F
Location of BakuLocation

Past Weather in Baku — Graph

°F

Baku Temperature Yesterday

Maximum temperature yesterday: 70 °F (at 12:30 pm)
Minimum temperature yesterday: 52 °F (at 3:30 am)
Average temperature yesterday: 62 °F

High & Low Weather Summary for the Past Weeks

 TemperatureHumidityPressure
High75 °F (Oct 15, 1:30 pm)100% (Oct 15, 12:30 am)30.45 "Hg (Oct 15, 12:30 am)
Low45 °F (Oct 15, 5:00 am)31% (Oct 9, 2:00 pm)29.92 "Hg (Oct 20, 12:30 am)
Average62 °F73%30.19 "Hg
* Reported Oct 8 3:00 am — Oct 23 3:00 am, Baku. Weather by CustomWeather, © 2020

Note: Actual official high and low records may vary slightly from our data, if they occured in-between our weather recording intervals... More about our weather records

Baku Weather History for the Previous 24 Hours

Scroll right to see more
 ConditionsComfort  
Time TempWeatherWind HumidityBarometerVisibility
3:00 am
Fri, Oct 23
54 °FClear.5 mph94%30.21 "Hg10 mi
2:30 am55 °FClear.9 mph82%30.21 "Hg10 mi
2:00 am55 °FClear.7 mph88%30.21 "Hg10 mi
1:30 am57 °FClear.9 mph82%30.21 "Hg10 mi
1:00 am59 °FClear.7 mph82%30.21 "Hg10 mi
12:30 am59 °FClear.7 mph82%30.21 "Hg10 mi
12:00 am59 °FClear.7 mph82%30.24 "Hg10 mi
11:30 pm
Thu, Oct 22
61 °FClear.7 mph83%30.24 "Hg10 mi
11:00 pm61 °FClear.7 mph83%30.24 "Hg10 mi
10:30 pm61 °FPassing clouds.7 mph77%30.24 "HgN/A
10:00 pm61 °FPassing clouds.5 mph77%30.24 "HgN/A
9:30 pm61 °FPassing clouds.5 mph77%30.24 "HgN/A
9:00 pm63 °FPassing clouds.7 mph73%30.21 "HgN/A
8:30 pm63 °FPassing clouds.7 mph73%30.21 "HgN/A
8:00 pm63 °FPassing clouds.5 mph73%30.21 "HgN/A
7:30 pm64 °FPassing clouds.5 mph78%30.21 "HgN/A
7:00 pm64 °FPassing clouds.6 mph78%30.18 "HgN/A
6:30 pm66 °FPassing clouds.7 mph73%30.18 "HgN/A
6:00 pm66 °FPassing clouds.9 mph73%30.18 "HgN/A
5:30 pm66 °FPassing clouds.12 mph73%30.18 "HgN/A
5:00 pm66 °FScattered clouds.14 mph73%30.18 "HgN/A
4:00 pm68 °FScattered clouds.16 mph69%30.18 "HgN/A
3:30 pm68 °FPartly sunny.16 mph69%30.18 "HgN/A
3:00 pm68 °FPartly sunny.16 mph64%30.18 "HgN/A
2:30 pm70 °FPartly sunny.17 mph64%30.18 "HgN/A
2:00 pm68 °FPartly sunny.18 mph64%30.18 "HgN/A
1:30 pm68 °FPartly sunny.17 mph64%30.18 "HgN/A
1:00 pm70 °FPartly sunny.18 mph60%30.18 "HgN/A
12:30 pm70 °FPartly sunny.18 mph60%30.21 "HgN/A
12:00 pm68 °FPartly sunny.16 mph64%30.21 "HgN/A
11:30 am66 °FPartly sunny.16 mph68%30.24 "HgN/A
11:00 am66 °FPartly sunny.16 mph68%30.24 "HgN/A
10:30 am66 °FPartly sunny.16 mph68%30.24 "HgN/A
10:00 am66 °FScattered clouds.12 mph68%30.27 "HgN/A
9:30 am64 °FScattered clouds.14 mph68%30.27 "HgN/A
9:00 am63 °FPartly sunny.12 mph73%30.27 "HgN/A
8:30 am59 °FPartly sunny.9 mph77%30.30 "HgN/A
8:00 am59 °FPartly sunny.7 mph77%30.30 "HgN/A
7:30 am57 °FPartly sunny.7 mph82%30.27 "HgN/A
7:00 am57 °FPartly sunny.5 mph77%30.27 "HgN/A
6:30 am57 °FPassing clouds.2 mph77%30.30 "HgN/A
6:00 am57 °FClear.No wind77%30.30 "Hg10 mi
5:30 am55 °FClear.2 mph77%30.30 "Hg10 mi
5:00 am54 °FClear.5 mph82%30.30 "Hg10 mi
4:30 am52 °FClear.2 mph77%30.30 "Hg10 mi
4:00 am52 °FClear.5 mph77%30.30 "Hg10 mi
Weather by CustomWeather, © 2020

See weather overview